AAL1689 KSRQ-KCLT

Flight info

Callsign AAL1689
Flight time N/A
Altitude 35000
Route TIDES1 CAMJO TWINS PONZE BANKR5
Aircraft B738/M-SDE2E3FGHIRWXY/LB1

Departure

Time 2026-04-25 07:36
Airport Sarasota Bradenton International Airport (KSRQ)

Arrival

Time N/A
Airport Charlotte Douglas International Airport (KCLT)
Time Latitude Longitude Altitude Speed Heading
2026-04-25 07:23 27.38833 -82.55401 30 ft 0 kts 66°
2026-04-25 07:27 27.38825 -82.55423 30 ft 4 kts 66°
2026-04-25 07:27 27.38814 -82.55450 30 ft 4 kts 66°
2026-04-25 07:27 27.38803 -82.55478 30 ft 4 kts 66°
2026-04-25 07:27 27.38800 -82.55485 30 ft 0 kts 66°
2026-04-25 07:31 27.38801 -82.55485 30 ft 1 kts 66°
2026-04-25 07:31 27.38843 -82.55482 30 ft 12 kts 334°
2026-04-25 07:32 27.38944 -82.55523 30 ft 17 kts 346°
2026-04-25 07:32 27.39051 -82.55497 30 ft 16 kts 36°
2026-04-25 07:32 27.39111 -82.55398 30 ft 16 kts 85°
2026-04-25 07:32 27.39115 -82.55278 29 ft 15 kts 86°
2026-04-25 07:33 27.39105 -82.55202 29 ft 15 kts 116°
2026-04-25 07:33 27.39001 -82.55068 29 ft 20 kts 134°
2026-04-25 07:33 27.38967 -82.55030 29 ft 20 kts 135°
2026-04-25 07:34 27.38865 -82.54874 30 ft 0 kts 57°
2026-04-25 07:35 27.38879 -82.54855 30 ft 11 kts 46°
2026-04-25 07:35 27.38961 -82.54850 29 ft 13 kts 322°
2026-04-25 07:35 27.38983 -82.54872 28 ft 0 kts 314°
2026-04-25 07:36 27.38988 -82.54878 28 ft 11 kts 314°
2026-04-25 07:36 27.39258 -82.55190 27 ft 99 kts 315°
2026-04-25 07:36 27.39920 -82.55941 48 ft 167 kts 313°
2026-04-25 07:36 27.40773 -82.56902 901 ft 169 kts 307°
2026-04-25 07:37 27.41437 -82.57967 2026 ft 165 kts 294°
2026-04-25 07:37 27.41786 -82.59245 2620 ft 182 kts 278°
2026-04-25 07:37 27.41884 -82.60825 2829 ft 211 kts 270°
2026-04-25 07:37 27.41885 -82.62463 3503 ft 214 kts 268°
2026-04-25 07:38 27.41832 -82.64096 4387 ft 199 kts 266°
2026-04-25 07:38 27.41739 -82.65718 4542 ft 234 kts 265°
2026-04-25 07:38 27.41599 -82.67645 3799 ft 258 kts 264°
2026-04-25 07:38 27.41423 -82.69805 2228 ft 296 kts 264°
2026-04-25 07:39 27.40935 -82.72024 2209 ft 282 kts 249°
2026-04-25 07:39 27.40484 -82.74089 2540 ft 268 kts 272°
2026-04-25 07:39 27.41115 -82.76012 3184 ft 268 kts 310°
2026-04-25 07:39 27.42569 -82.77330 4070 ft 271 kts 329°
2026-04-25 07:40 27.44264 -82.78271 4981 ft 274 kts 338°
2026-04-25 07:40 27.46040 -82.79085 5827 ft 278 kts 341°
2026-04-25 07:40 27.47940 -82.79404 6734 ft 276 kts
2026-04-25 07:40 27.49860 -82.79296 7636 ft 277 kts
2026-04-25 07:41 27.51795 -82.79205 8488 ft 279 kts
2026-04-25 07:41 27.53750 -82.79127 9333 ft 282 kts
2026-04-25 07:41 27.55729 -82.79055 10141 ft 286 kts
2026-04-25 07:41 27.57780 -82.78985 10501 ft 307 kts
2026-04-25 07:42 27.60001 -82.78937 10715 ft 330 kts 359°
2026-04-25 07:42 27.62341 -82.78922 11258 ft 340 kts 359°
2026-04-25 07:42 27.63915 -82.78916 11719 ft 343 kts 358°
2026-04-25 07:42 27.66314 -82.78907 12482 ft 346 kts 358°
2026-04-25 07:43 27.68730 -82.78897 13236 ft 349 kts 358°
2026-04-25 07:43 27.71172 -82.78885 13932 ft 353 kts 358°
2026-04-25 07:43 27.73641 -82.78871 14596 ft 356 kts 358°
2026-04-25 07:43 27.76127 -82.78855 15311 ft 357 kts 358°
2026-04-25 07:44 27.78621 -82.78839 16009 ft 360 kts 358°
2026-04-25 07:44 27.81128 -82.78824 16692 ft 362 kts 358°
2026-04-25 07:44 27.83634 -82.78808 17355 ft 365 kts 357°
2026-04-25 07:44 27.86187 -82.78791 18014 ft 367 kts 357°
2026-04-25 07:45 27.88753 -82.78775 18616 ft 370 kts 357°
2026-04-25 07:45 27.91339 -82.78759 19169 ft 373 kts 357°
2026-04-25 07:45 27.93944 -82.78743 19684 ft 377 kts 357°
2026-04-25 07:45 27.96580 -82.78727 20221 ft 380 kts 357°
2026-04-25 07:46 27.99238 -82.78711 20759 ft 383 kts 357°
2026-04-25 07:46 28.01919 -82.78694 21283 ft 387 kts 356°
2026-04-25 07:46 28.04624 -82.78677 21781 ft 390 kts 356°
2026-04-25 07:46 28.07355 -82.78660 22286 ft 393 kts 356°
2026-04-25 07:47 28.10109 -82.78643 22775 ft 397 kts 356°
2026-04-25 07:47 28.12878 -82.78625 23260 ft 400 kts 356°
2026-04-25 07:47 28.15675 -82.78607 23703 ft 403 kts 356°
2026-04-25 07:47 28.18481 -82.78589 24124 ft 405 kts 356°
2026-04-25 07:48 28.21314 -82.78571 24521 ft 408 kts 356°
2026-04-25 07:48 28.24164 -82.78553 24942 ft 410 kts 356°
2026-04-25 07:48 28.26987 -82.78534 25354 ft 411 kts 356°
2026-04-25 07:48 28.29857 -82.78516 25759 ft 413 kts 356°
2026-04-25 07:49 28.32740 -82.78497 26155 ft 415 kts 356°
2026-04-25 07:49 28.35636 -82.78479 26537 ft 418 kts 356°
2026-04-25 07:49 28.38554 -82.78460 26921 ft 420 kts 356°
2026-04-25 07:49 28.41478 -82.78430 27293 ft 422 kts 357°
2026-04-25 07:50 28.44427 -82.78262 27653 ft 425 kts 360°
2026-04-25 07:50 28.47386 -82.77997 28036 ft 428 kts
2026-04-25 07:50 28.50366 -82.77697 28337 ft 431 kts
2026-04-25 07:50 28.53368 -82.77392 28640 ft 434 kts
2026-04-25 07:51 28.56387 -82.77092 28987 ft 436 kts
2026-04-25 07:51 28.59412 -82.76803 29363 ft 437 kts
2026-04-25 07:51 28.62439 -82.76521 29811 ft 436 kts
2026-04-25 07:51 28.65448 -82.76245 30289 ft 433 kts
2026-04-25 07:52 28.68445 -82.75973 30726 ft 430 kts
2026-04-25 07:52 28.71428 -82.75704 31098 ft 430 kts
2026-04-25 07:52 28.74407 -82.75436 31443 ft 429 kts 360°
2026-04-25 07:52 28.77384 -82.75169 31826 ft 428 kts
2026-04-25 07:53 28.80353 -82.74902 32160 ft 428 kts 360°
2026-04-25 07:53 28.83326 -82.74634 32506 ft 428 kts 360°
2026-04-25 07:53 28.86287 -82.74366 32891 ft 426 kts 360°
2026-04-25 07:53 28.89236 -82.74099 33278 ft 424 kts 359°
2026-04-25 07:54 28.92178 -82.73832 33637 ft 423 kts 359°
2026-04-25 07:54 28.95074 -82.73570 33971 ft 422 kts 359°
2026-04-25 07:54 28.98043 -82.73302 34254 ft 422 kts 359°
2026-04-25 07:54 29.00963 -82.73037 34510 ft 422 kts 359°
2026-04-25 07:55 29.03848 -82.72776 34762 ft 421 kts 359°
2026-04-25 07:55 29.06772 -82.72511 34985 ft 422 kts 360°
2026-04-25 07:55 29.12685 -82.71976 34961 ft 427 kts 360°
2026-04-25 07:56 29.18571 -82.71439 34943 ft 421 kts 360°
2026-04-25 07:56 29.24396 -82.70907 34963 ft 419 kts 360°
2026-04-25 07:57 29.30217 -82.70378 34958 ft 419 kts 360°
2026-04-25 07:57 29.36038 -82.69848 34966 ft 420 kts
2026-04-25 07:58 29.41868 -82.69319 34952 ft 420 kts 359°
2026-04-25 07:58 29.47697 -82.69165 34963 ft 419 kts 355°
2026-04-25 07:59 29.53527 -82.69199 34957 ft 419 kts 355°
2026-04-25 07:59 29.59372 -82.69205 34957 ft 420 kts 356°
2026-04-25 08:00 29.65190 -82.69179 34962 ft 421 kts 356°
2026-04-25 08:00 29.71056 -82.69142 34959 ft 422 kts 356°
2026-04-25 08:01 29.76937 -82.69104 34956 ft 423 kts 356°
2026-04-25 08:01 29.82834 -82.69066 34959 ft 424 kts 356°
2026-04-25 08:02 29.88746 -82.69029 34950 ft 425 kts 356°
2026-04-25 08:02 29.94667 -82.68992 34955 ft 425 kts 356°
2026-04-25 08:03 30.00581 -82.68954 34958 ft 425 kts 356°
2026-04-25 08:03 30.06466 -82.68914 34955 ft 425 kts 356°
2026-04-25 08:04 30.12382 -82.68872 34955 ft 425 kts 356°
2026-04-25 08:04 30.18299 -82.68830 34955 ft 425 kts 356°
2026-04-25 08:05 30.24214 -82.68789 34972 ft 425 kts 357°
2026-04-25 08:05 30.30133 -82.68747 34978 ft 425 kts 357°
2026-04-25 08:06 30.36060 -82.68705 34984 ft 426 kts 357°
2026-04-25 08:06 30.41987 -82.68663 34984 ft 426 kts 357°
2026-04-25 08:07 30.47931 -82.68621 34986 ft 427 kts 357°
2026-04-25 08:07 30.53833 -82.68360 34978 ft 429 kts
2026-04-25 08:08 30.59756 -82.67382 34984 ft 431 kts
2026-04-25 08:08 30.65681 -82.66297 34980 ft 431 kts
2026-04-25 08:09 30.71606 -82.65278 34979 ft 431 kts
2026-04-25 08:09 30.76539 -82.64466 34964 ft 431 kts
2026-04-25 08:10 30.83480 -82.63342 34959 ft 431 kts
2026-04-25 08:10 30.89414 -82.62383 34952 ft 431 kts
2026-04-25 08:11 30.95354 -82.61421 34940 ft 431 kts
2026-04-25 08:11 31.01293 -82.60457 34936 ft 431 kts
2026-04-25 08:12 31.07188 -82.59498 34937 ft 431 kts
2026-04-25 08:12 31.13123 -82.58532 34936 ft 430 kts
2026-04-25 08:13 31.19066 -82.57563 34934 ft 431 kts
2026-04-25 08:14 31.27970 -82.56109 34927 ft 430 kts
2026-04-25 08:14 31.33905 -82.55139 34924 ft 431 kts
2026-04-25 08:15 31.39843 -82.54167 34925 ft 431 kts
2026-04-25 08:15 31.45747 -82.53199 34925 ft 431 kts
2026-04-25 08:16 31.51677 -82.52225 34927 ft 431 kts
2026-04-25 08:16 31.57620 -82.51248 34926 ft 431 kts
2026-04-25 08:17 31.63557 -82.50271 34925 ft 431 kts
2026-04-25 08:17 31.69500 -82.49292 34910 ft 431 kts
2026-04-25 08:18 31.75449 -82.48310 34908 ft 431 kts
2026-04-25 08:18 31.81391 -82.47329 34906 ft 431 kts
2026-04-25 08:19 31.87334 -82.46346 34916 ft 431 kts
2026-04-25 08:19 31.93285 -82.45360 34904 ft 432 kts
2026-04-25 08:20 31.99188 -82.44381 34916 ft 431 kts
2026-04-25 08:20 32.05134 -82.43393 34921 ft 431 kts
2026-04-25 08:21 32.11075 -82.42405 34921 ft 431 kts
2026-04-25 08:21 32.17010 -82.41417 34928 ft 431 kts
2026-04-25 08:22 32.22943 -82.40427 34938 ft 430 kts
2026-04-25 08:22 32.28880 -82.39436 34923 ft 430 kts
2026-04-25 08:23 32.34808 -82.38445 34908 ft 430 kts
2026-04-25 08:23 32.40737 -82.37453 34926 ft 430 kts
2026-04-25 08:24 32.46676 -82.36457 34915 ft 431 kts